When you browse on this site, cookies collect data to enhance your experience and personalize the content and advertising you see.
Visit our Privacy Policy to learn more. By continuing to use the site, you agree to this use of cookies and data.
  • en Suisse
  • Liste des pays
  • À 7 jours
  • Température de l'eau
  • Carte météo
  • Widgets météo
  • user-avatar
    Se connecter

    Météo par heure à Thimphou

    Ce jour, 8 Décembre, Dimanche

    Heure Température Précipitation Vent Pression Humidité
    00:00 -1°C° 0 mm 1 m/s 520 mmHg 77%
    01:00 -1°C° 0 mm 1 m/s 520 mmHg 75%
    02:00 -1°C° 0 mm 1 m/s 520 mmHg 73%
    03:00 -1°C° 0 mm 1 m/s 520 mmHg 72%
    04:00 -1°C° 0 mm 1 m/s 520 mmHg 71%
    05:00 -1°C° 0 mm 1 m/s 520 mmHg 69%
    06:00 -1°C° 0 mm 1 m/s 520 mmHg 73%
    07:00 +1°C° 0 mm 1 m/s 522 mmHg 63%
    08:00 +4°C° 0 mm 1 m/s 524 mmHg 54%
    09:00 +7°C° 0 mm 1 m/s 526 mmHg 44%
    10:00 +8°C° 0 mm 1 m/s 526 mmHg 41%
    11:00 +8°C° 0 mm 2 m/s 526 mmHg 37%
    12:00 +9°C° 0 mm 2 m/s 527 mmHg 34%
    13:00 +9°C° 0 mm 2 m/s 526 mmHg 37%
    14:00 +8°C° 0 mm 2 m/s 525 mmHg 40%
    15:00 +7°C° 0 mm 2 m/s 524 mmHg 44%
    16:00 +5°C° 0 mm 2 m/s 523 mmHg 57%
    17:00 +3°C° 0 mm 1 m/s 521 mmHg 71%
    18:00 0°C° 0 mm 1 m/s 520 mmHg 84%
    19:00 0°C° 0 mm 1 m/s 520 mmHg 84%
    20:00 0°C° 0 mm 1 m/s 520 mmHg 83%
    21:00 -1°C° 0 mm 1 m/s 521 mmHg 83%
    22:00 -1°C° 0 mm 1 m/s 520 mmHg 81%
    23:00 -1°C° 0 mm 1 m/s 520 mmHg 80%

    Demain, 9 Décembre, Lundi

    Heure Température Précipitation Vent Pression Humidité
    00:00 -1°C° 0 mm 1 m/s 520 mmHg 78%
    01:00 -1°C° 0 mm 1 m/s 519 mmHg 76%
    02:00 -1°C° 0 mm 1 m/s 519 mmHg 74%
    03:00 -1°C° 0 mm 1 m/s 519 mmHg 72%
    04:00 -1°C° 0 mm 1 m/s 519 mmHg 70%
    05:00 -2°C° 0 mm 1 m/s 519 mmHg 68%
    06:00 -2°C° 0 mm 1 m/s 519 mmHg 66%
    07:00 +1°C° 0 mm 1 m/s 521 mmHg 58%
    08:00 +4°C° 0 mm 1 m/s 524 mmHg 50%
    09:00 +7°C° 0 mm 1 m/s 526 mmHg 41%
    10:00 +8°C° 0 mm 1 m/s 526 mmHg 39%
    11:00 +8°C° 0 mm 2 m/s 526 mmHg 37%
    12:00 +9°C° 0 mm 2 m/s 527 mmHg 36%
    13:00 +9°C° 0 mm 2 m/s 526 mmHg 40%
    14:00 +8°C° 0 mm 2 m/s 525 mmHg 45%
    15:00 +7°C° 0 mm 2 m/s 524 mmHg 49%
    16:00 +5°C° 0 mm 2 m/s 522 mmHg 63%
    17:00 +3°C° 0 mm 1 m/s 521 mmHg 77%
    18:00 0°C° 0 mm 1 m/s 519 mmHg 91%
    19:00 0°C° 0 mm 1 m/s 519 mmHg 90%
    20:00 0°C° 0 mm 1 m/s 519 mmHg 89%
    21:00 -2°C° 0 mm 0 m/s 519 mmHg 89%
    22:00 -1°C° 0 mm 1 m/s 519 mmHg 88%
    23:00 -1°C° 0 mm 1 m/s 518 mmHg 88%

    Après-demain, 10 Décembre, Mardi

    Heure Température Précipitation Vent Pression Humidité
    00:00 -1°C° 0 mm 1 m/s 518 mmHg 88%
    01:00 -1°C° 0 mm 1 m/s 518 mmHg 88%
    02:00 -2°C° 0 mm 1 m/s 517 mmHg 88%
    03:00 -2°C° 0 mm 1 m/s 517 mmHg 88%
    04:00 -2°C° 0 mm 1 m/s 517 mmHg 88%
    05:00 -2°C° 0 mm 1 m/s 517 mmHg 88%
    06:00 -2°C° 0 mm 1 m/s 517 mmHg 87%
    07:00 0°C° 0 mm 1 m/s 518 mmHg 76%
    08:00 +3°C° 0 mm 1 m/s 520 mmHg 65%
    09:00 +5°C° 0 mm 1 m/s 522 mmHg 54%
    10:00 +5°C° 0 mm 2 m/s 522 mmHg 51%
    11:00 +6°C° 0 mm 2 m/s 522 mmHg 47%
    12:00 +7°C° 0 mm 2 m/s 523 mmHg 44%
    13:00 +7°C° 0 mm 2 m/s 522 mmHg 48%
    14:00 +6°C° 0 mm 2 m/s 521 mmHg 53%
    15:00 +5°C° 0 mm 2 m/s 520 mmHg 58%
    16:00 +3°C° 0 mm 2 m/s 519 mmHg 70%
    17:00 +2°C° 0 mm 1 m/s 518 mmHg 82%
    18:00 -1°C° 0 mm 0 m/s 517 mmHg 95%
    19:00 -1°C° 0 mm 0 m/s 517 mmHg 94%
    20:00 -1°C° 0 mm 0 m/s 518 mmHg 94%
    21:00 -1°C° 0 mm 0 m/s 518 mmHg 93%
    22:00 -1°C° 0.1 mm 0 m/s 518 mmHg 93%
    23:00 -1°C° 0.1 mm 0 m/s 518 mmHg 93%

    11 Décembre, Mercredi

    Heure Température Précipitation Vent Pression Humidité
    00:00 -1°C° 0.1 mm 0 m/s 518 mmHg 92%
    01:00 -1°C° 0.1 mm 0 m/s 518 mmHg 92%
    02:00 -1°C° 0.1 mm 0 m/s 517 mmHg 92%
    03:00 -1°C° 0.1 mm 0 m/s 517 mmHg 92%
    04:00 -2°C° 0 mm 0 m/s 517 mmHg 92%
    05:00 -2°C° 0 mm 0 m/s 517 mmHg 92%
    06:00 -2°C° 0 mm 0 m/s 517 mmHg 92%
    07:00 -1°C° 0 mm 0 m/s 518 mmHg 84%
    08:00 +2°C° 0 mm 1 m/s 520 mmHg 76%
    09:00 +3°C° 0 mm 1 m/s 521 mmHg 68%
    10:00 +4°C° 0 mm 1 m/s 521 mmHg 66%
    11:00 +4°C° 0 mm 2 m/s 521 mmHg 65%
    12:00 +5°C° 0 mm 2 m/s 521 mmHg 64%
    13:00 +4°C° 0.1 mm 2 m/s 521 mmHg 68%
    14:00 +4°C° 0.1 mm 2 m/s 520 mmHg 72%
    15:00 +3°C° 0.1 mm 2 m/s 519 mmHg 76%
    16:00 +3°C° 0.1 mm 1 m/s 519 mmHg 83%
    17:00 +2°C° 0.1 mm 1 m/s 518 mmHg 90%
    18:00 0°C° 0.1 mm 0 m/s 517 mmHg 97%
    19:00 -1°C° 0.1 mm 0 m/s 518 mmHg 96%
    20:00 -1°C° 0.1 mm 0 m/s 518 mmHg 96%
    21:00 -1°C° 0.1 mm 0 m/s 518 mmHg 95%
    22:00 -2°C° 0 mm 0 m/s 518 mmHg 95%
    23:00 -2°C° 0 mm 0 m/s 518 mmHg 94%

    12 Décembre, Jeudi

    Heure Température Précipitation Vent Pression Humidité
    00:00 -2°C° 0 mm 0 m/s 518 mmHg 93%
    01:00 -2°C° 0 mm 0 m/s 517 mmHg 92%
    02:00 -3°C° 0 mm 0 m/s 517 mmHg 91%
    03:00 -2°C° 0 mm 1 m/s 517 mmHg 90%
    04:00 -3°C° 0 mm 0 m/s 517 mmHg 90%
    05:00 -3°C° 0 mm 0 m/s 517 mmHg 89%
    06:00 -4°C° 0 mm 0 m/s 517 mmHg 88%
    07:00 -1°C° 0 mm 1 m/s 518 mmHg 82%
    08:00 +1°C° 0 mm 1 m/s 520 mmHg 75%
    09:00 +3°C° 0 mm 1 m/s 522 mmHg 68%
    10:00 +4°C° 0 mm 1 m/s 522 mmHg 68%
    11:00 +4°C° 0 mm 2 m/s 522 mmHg 67%
    12:00 +4°C° 0 mm 2 m/s 522 mmHg 67%
    13:00 +4°C° 0.1 mm 2 m/s 521 mmHg 70%
    14:00 +4°C° 0.1 mm 2 m/s 521 mmHg 72%
    15:00 +3°C° 0.1 mm 2 m/s 521 mmHg 75%
    16:00 +3°C° 0.1 mm 1 m/s 520 mmHg 82%
    17:00 +2°C° 0.1 mm 1 m/s 519 mmHg 89%
    18:00 -1°C° 0.1 mm 0 m/s 519 mmHg 97%
    19:00 -1°C° 0.1 mm 0 m/s 519 mmHg 96%
    20:00 -1°C° 0.1 mm 0 m/s 519 mmHg 95%
    21:00 -1°C° 0.1 mm 0 m/s 519 mmHg 95%
    22:00 -1°C° 0.1 mm 0 m/s 519 mmHg 94%
    23:00 -1°C° 0.1 mm 0 m/s 519 mmHg 93%

    13 Décembre, Vendredi

    Heure Température Précipitation Vent Pression Humidité
    00:00 -1°C° 0.1 mm 0 m/s 519 mmHg 92%
    01:00 -2°C° 0 mm 0 m/s 519 mmHg 93%
    02:00 -2°C° 0 mm 0 m/s 518 mmHg 93%
    03:00 -3°C° 0 mm 0 m/s 518 mmHg 93%
    04:00 -3°C° 0 mm 0 m/s 518 mmHg 93%
    05:00 -2°C° 0 mm 1 m/s 518 mmHg 92%
    06:00 -2°C° 0 mm 1 m/s 518 mmHg 91%
    07:00 0°C° 0 mm 1 m/s 520 mmHg 83%
    08:00 +2°C° 0 mm 1 m/s 521 mmHg 74%
    09:00 +4°C° 0 mm 1 m/s 523 mmHg 65%
    10:00 +5°C° 0.1 mm 1 m/s 523 mmHg 63%
    11:00 +5°C° 0.1 mm 2 m/s 524 mmHg 61%
    12:00 +6°C° 0.1 mm 2 m/s 524 mmHg 59%
    13:00 +5°C° 0.2 mm 2 m/s 523 mmHg 64%
    14:00 +5°C° 0.2 mm 2 m/s 522 mmHg 68%
    15:00 +4°C° 0.2 mm 2 m/s 521 mmHg 73%
    16:00 +3°C° 0.3 mm 2 m/s 521 mmHg 82%
    17:00 +2°C° 0.3 mm 1 m/s 520 mmHg 90%
    18:00 0°C° 0.3 mm 1 m/s 519 mmHg 98%
    19:00 0°C° 0.8 mm 1 m/s 519 mmHg 98%
    20:00 0°C° 0.8 mm 1 m/s 520 mmHg 98%
    21:00 0°C° 0.8 mm 1 m/s 520 mmHg 98%
    22:00 0°C° 1.1 mm 1 m/s 519 mmHg 98%
    23:00 0°C° 1.1 mm 1 m/s 519 mmHg 98%
    Voir plus